Погода в Исе

Россия / Амурская область     51°45′22″N   131°01′46″E
темп.,
°C
ветер,
м/с
пор.,
м/с
влажн.,
%
обл.,
%
осадки,
мм/ч
давл.,
гПа
погр.,
м
16 апреля, пт
пт1600:00−6вюв217599 0.0 101518
03:00−5вюв2270100 0.0 101534
06:00−4в2266100 0.0 101548
09:00+1всв2347100 0.0 1014384
12:00+4св2345100 0.0 10121080
15:00+3всв3469100 0.1 1012816
18:00+2св1279100 0.0 101290
21:000св2397100 0.3 101380
17 апреля, сб
сб1700:00−1всв2297100 0.2 101258
03:000всв1197100 1.2 101146
06:00−1всв1197100 0.0 101157
09:00+4всв118199 0.0 1012321
12:00+5ююз1276100 0.0 1012776
15:00+6з1273100 0.1 1012587
18:00+5юз018262 0.0 101211
21:000ююв229321 0.0 101515
18 апреля, вс
вс1800:00−1ююв22949 0.0 101514
03:00−1ююв21957 0.0 101512
06:00−1юв11935 0.0 101514
09:00+7ю01665 0.0 1013530
12:00+10с115311 0.0 10111270
15:00+11всв11495 0.0 10091430
18:00+8в22673 0.0 1009199
21:00+3вюв21791 0.0 101010
19 апреля, пн
пн1900:00+2в11822 0.0 101010
03:00+1всв11856 0.0 100910
06:00+1в11855 0.0 100910
09:00+9ююв12585 0.0 1007416
12:00+12ююв23425 0.0 10051520
15:00+13юв233821 0.0 10041860
18:00+11юв245447 0.0 1003212
21:00+5ююв116871 0.0 100329
20 апреля, вт
вт2000:00+1зсз41097100 0.4 1007620
03:00−4зсз613685 2.7 1009830
06:00−5зсз51165100 0.0 10091358
09:00−4зсз61060100 0.1 10091598
12:00−1сз5750100 0.1 10101767
15:00+2ссз5751100 0.1 10111542
18:00+3ссз47605 0.0 10141122
21:00−3з11835 0.0 101710